Regional Weather Roundup
Issued by NWS

Home | Current Version | Previous Version | Graphics & Text | Print | Product List | Glossary On
Versions: 1 2 3 4 5 6 7 8 9 10 11 12 13 14 15 16 17 18 19 20 21 22 23 24 25 26 27 28 29 30 31 32 33 34 35 36 37 38 39 40 41 42 43 44 45 46 47 48 49 50
000
ASUS43 KBIS 052302
RWRND

NORTH DAKOTA REGIONAL WEATHER ROUNDUP
NATIONAL WEATHER SERVICE BISMARCK ND
600 PM CDT SUN JUL 05 2015

NOTE: "FAIR" INDICATES FEW OR NO CLOUDS BELOW 12,000 FEET WITH NO
SIGNIFICANT WEATHER AND/OR OBSTRUCTIONS TO VISIBILITY.


NDZ001>003-009>011-017-060000-
NORTHWEST NORTH DAKOTA

CITY           SKY/WX    TMP DP  RH WIND       PRES   REMARKS
WILLISTON      PTSUNNY   75  47  36 N15       30.01R
MINOT          CLOUDY    72  58  61 NW12      29.92R HAZE
$$

NDZ018>021-031>035-040>046-060000-
SOUTHWEST NORTH DAKOTA

CITY           SKY/WX    TMP DP  RH WIND       PRES   REMARKS
BISMARCK       CLOUDY    73  60  63 N9        29.92R HAZE
DICKINSON      CLOUDY    68  57  68 NW9       29.98S HAZE
GARRISON         N/A     72  60  66 N12       29.92S
HETTINGER ARPT CLOUDY    67  58  72 N16       30.00R HAZE
$$

NDZ004>008-012>016-024-026-027-054-060000-
NORTHEAST NORTH DAKOTA

CITY           SKY/WX    TMP DP  RH WIND       PRES   REMARKS
GRAND FORKS    PTSUNNY   77  67  71 N12       29.79S
GRND FRKS AFB  MOSUNNY   75  66  73 N13       29.81S
DEVILS LAKE    MOSUNNY   73  59  60 N14       29.85R
$$

NDZ022-023-025-028>030-036>039-047>053-060000-
SOUTHEAST NORTH DAKOTA

CITY           SKY/WX    TMP DP  RH WIND       PRES   REMARKS
FARGO          PTSUNNY   84  70  62 NW10      29.76R
JAMESTOWN      LGT RAIN  74  64  71 N13       29.86R
$$



USA.gov is the U.S. government's official web portal to all federal, state and local government web resources and services.